QPF
0.00 0.00 0.00 0.00 0.00 0.00 0.00 0.00 0.00 0.00 0.00 0.00 0.00 0.00 0.00 0.00 0.00 0.00 0.00 0.00 0.00 0.00 0.00 0.00 0.00 0.00 0.00 0.00 0.00 0.00 0.00 0.00 0.00 0.00 0.00 0.00 0.00 0.00 0.00 0.00 0.00 0.00 0.00 0.00
0.00 0.00 0.00 0.00 0.00 0.00 0.00 0.00 0.00 0.00 0.00 0.00 0.00 0.00 0.00 0.00 0.00 0.00 0.00 0.00 0.00 0.00 0.00 0.00 0.00 0.00 0.00 0.00 0.00 0.00 0.00 0.00 0.00 0.00 0.00 0.00 0.00 0.00 0.00 0.00 0.00 0.00 0.00 0.00
0.00 0.00 0.00 0.00 0.00 0.00 0.00 0.00 0.00 0.00 0.00 0.00 0.00 0.00 0.00 0.00 0.00 0.00 0.00 0.00 0.00 0.00 0.00 0.00 0.00 0.00 0.00 0.00 0.00 0.00 0.00 0.00 0.00 0.00 0.00 0.00 0.00 0.00 0.00 0.00 0.00 0.00 0.00 0.00
0.00 0.00 0.00 0.00 0.00 0.00 0.00 0.00 0.00 0.00 0.00 0.00 0.00 0.00 0.00 0.00 0.00 0.00 0.00 0.00 0.00 0.00 0.00 0.00 0.00 0.00 0.00 0.00 0.00 0.00 0.00 0.00 0.00 0.00 0.00 0.00 0.00 0.00 0.00 0.00 0.00 0.00 0.00 0.00
0.00 0.00 0.00 0.00 0.00 0.00 0.00 0.00 0.00 0.00 0.00 0.00 0.00 0.00 0.00 0.00 0.00 0.00 0.00 0.00 0.00 0.00 0.00 0.00 0.00 0.00 0.00 0.00 0.00 0.00 0.00 0.00 0.00 0.00 0.00 0.00 0.00 0.00 0.00 0.00 0.00 0.00 0.00 0.00
0.01 0.01 0.00 0.00 0.00 0.00 0.00 0.00 0.00 0.00 0.00 0.01 0.01 0.00 0.00 0.00 0.00 0.00 0.00 0.00 0.00 0.00 0.00 0.00 0.00 0.00 0.00 0.00 0.00 0.00 0.00 0.00 0.00 0.00 0.00 0.00 0.00 0.00 0.00 0.00 0.00 0.00 0.00 0.00
0.01 0.01 0.00 0.00 0.00 0.00 0.00 0.00 0.00 0.00 0.00 0.00 0.00 0.00 0.00 0.00 0.00 0.00 0.00 0.00 0.00 0.00 0.00 0.00 0.00 0.00 0.00 0.00 0.00 0.00 0.00 0.00 0.00 0.00 0.00 0.00 0.00 0.00 0.00 0.00 0.00 0.00 0.00 0.00
0.00 0.01 0.00 0.00 0.00 0.00 0.00 0.00 0.00 0.00 0.00 0.00 0.00 0.00 0.00 0.00 0.00 0.00 0.00 0.00 0.00 0.00 0.00 0.00 0.00 0.00 0.00 0.00 0.00 0.00 0.00 0.00 0.00 0.00 0.00 0.00 0.00 0.00 0.00 0.00 0.00 0.00 0.00 0.00
0.00 0.00 0.00 0.00 0.00 0.00 0.00 0.00 0.00 0.01 0.00 0.00 0.00 0.00 0.00 0.00 0.00 0.00 0.00 0.00 0.00 0.00 0.00 0.00 0.00 0.00 0.00 0.00 0.00 0.00 0.00 0.00 0.00 0.00 0.00 0.00 0.00 0.00 0.00 0.00 0.00 0.00 0.00 0.00
0.00 0.00 0.00 0.00 0.00 0.00 0.00 0.00 0.00 0.00 0.01 0.01 0.00 0.00 0.00 0.00 0.00 0.00 0.00 0.00 0.00 0.00 0.00 0.00 0.00 0.00 0.00 0.00 0.00 0.00 0.00 0.00 0.00 0.00 0.00 0.00 0.00 0.00 0.00 0.00 0.00 0.00 0.00 0.00
0.00 0.00 0.00 0.00 0.00 0.00 0.00 0.00 0.00 0.00 0.00 0.00 0.01 0.01 0.01 0.01 0.00 0.00 0.00 0.00 0.00 0.00 0.00 0.00 0.00 0.00 0.00 0.00 0.00 0.00 0.00 0.00 0.00 0.00 0.00 0.00 0.00 0.00 0.00 0.00 0.00 0.00 0.00 0.00
0.00 0.00 0.00 0.00 0.00 0.00 0.00 0.00 0.00 0.00 0.00 0.00 0.00 0.00 0.00 0.00 0.00 0.00 0.00 0.00 0.00 0.00 0.00 0.00 0.00 0.00 0.00 0.00 0.00 0.00 0.00 0.00 0.00 0.00 0.00 0.00 0.00 0.00 0.00 0.00 0.00 0.00 0.00 0.00
0.00 0.00 0.00 0.00 0.00 0.00 0.00 0.00 0.00 0.00 0.00 0.00 0.00 0.00 0.00 0.00 0.00 0.00 0.00 0.00 0.00 0.00 0.00 0.00 0.00 0.00 0.00 0.00 0.00 0.00 0.00 0.00 0.00 0.00 0.00 0.00 0.00 0.00 0.00 0.00 0.00 0.00 0.00 0.00
0.00 0.00 0.00 0.00 0.00 0.00 0.00 0.00 0.00 0.00 0.00 0.00 0.00 0.00 0.00 0.00 0.00 0.00 0.00 0.00 0.00 0.00 0.00 0.00 0.00 0.00 0.00 0.00 0.00 0.00 0.00 0.00 0.00 0.00 0.00 0.00 0.00 0.00 0.00 0.00 0.00 0.00 0.00 0.00
0.00 0.00 0.00 0.00 0.00 0.00 0.00 0.00 0.00 0.00 0.00 0.00 0.00 0.00 0.00 0.00 0.00 0.00 0.00 0.00 0.00 0.00 0.00 0.00 0.00 0.00 0.00 0.00 0.00 0.00 0.00 0.00 0.00 0.00 0.00 0.00 0.00 0.00 0.00 0.00 0.00 0.00 0.00 0.00
0.00 0.00 0.00 0.00 0.00 0.00 0.00 0.00 0.00 0.00 0.00 0.00 0.00 0.00 0.00 0.01 0.00 0.00 0.00 0.00 0.00 0.00 0.00 0.00 0.00 0.00 0.00 0.00 0.00 0.00 0.00 0.00 0.00 0.00 0.00 0.00 0.00 0.00 0.00 0.00 0.00 0.00 0.00 0.00
0.00 0.00 0.00 0.00 0.00 0.00 0.00 0.00 0.00 0.00 0.00 0.00 0.00 0.00 0.00 0.00 0.00 0.00 0.00 0.00 0.00 0.00 0.00 0.00 0.00 0.01 0.01 0.01 0.01 0.01 0.00 0.00 0.00 0.00 0.00 0.00 0.00 0.00 0.00 0.00 0.00 0.00 0.00 0.00
0.00 0.00 0.00 0.00 0.00 0.00 0.00 0.00 0.00 0.00 0.00 0.00 0.00 0.00 0.00 0.00 0.00 0.00 0.00 0.00 0.00 0.00 0.00 0.00 0.00 0.00 0.01 0.01 0.01 0.01 0.01 0.01 0.01 0.00 0.00 0.00 0.00 0.00 0.00 0.00 0.00 0.00 0.00 0.00
0.00 0.00 0.00 0.00 0.00 0.00 0.00 0.00 0.00 0.00 0.00 0.00 0.00 0.00 0.00 0.00 0.00 0.00 0.00 0.00 0.00 0.00 0.01 0.01 0.01 0.01 0.01 0.01 0.01 0.01 0.01 0.01 0.01 0.01 0.01 0.01 0.01 0.01 0.01 0.00 0.00 0.00 0.00 0.00
0.00 0.00 0.00 0.00 0.00 0.00 0.00 0.00 0.00 0.00 0.00 0.00 0.00 0.00 0.00 0.00 0.00 0.00 0.00 0.00 0.00 0.01 0.01 0.02 0.01 0.01 0.01 0.01 0.02 0.01 0.01 0.01 0.02 0.02 0.01 0.02 0.01 0.01 0.01 0.01 0.00 0.00 0.00 0.00
0.00 0.01 0.01 0.01 0.00 0.00 0.00 0.00 0.00 0.00 0.00 0.00 0.00 0.00 0.01 0.01 0.00 0.00 0.01 0.01 0.01 0.01 0.01 0.02 0.01 0.01 0.01 0.01 0.02 0.02 0.02 0.02 0.02 0.02 0.02 0.02 0.02 0.02 0.01 0.01 0.01 0.00 0.00 0.00
0.01 0.01 0.01 0.01 0.01 0.01 0.01 0.01 0.01 0.01 0.01 0.01 0.01 0.01 0.01 0.01 0.01 0.01 0.01 0.01 0.01 0.02 0.02 0.01 0.01 0.02 0.02 0.02 0.01 0.01 0.01 0.02 0.02 0.02 0.02 0.02 0.02 0.02 0.02 0.01 0.01 0.00 0.00 0.00
0.01 0.02 0.02 0.01 0.01 0.01 0.01 0.01 0.01 0.01 0.01 0.01 0.01 0.01 0.01 0.01 0.01 0.01 0.02 0.01 0.01 0.02 0.02 0.01 0.02 0.03 0.03 0.02 0.01 0.01 0.01 0.02 0.02 0.02 0.02 0.02 0.02 0.02 0.02 0.01 0.01 0.01 0.00 0.00
0.03 0.03 0.02 0.01 0.01 0.01 0.02 0.02 0.01 0.01 0.01 0.01 0.01 0.01 0.01 0.02 0.02 0.02 0.02 0.02 0.02 0.02 0.02 0.02 0.03 0.03 0.02 0.02 0.02 0.02 0.02 0.02 0.02 0.02 0.02 0.02 0.02 0.02 0.01 0.01 0.01 0.00 0.00 0.00
0.03 0.02 0.01 0.01 0.01 0.01 0.01 0.01 0.01 0.01 0.01 0.01 0.01 0.01 0.01 0.01 0.01 0.01 0.01 0.01 0.02 0.02 0.02 0.02 0.02 0.02 0.02 0.02 0.02 0.02 0.02 0.02 0.02 0.02 0.02 0.01 0.01 0.01 0.01 0.01 0.01 0.01 0.00 0.00
0.01 0.01 0.00 0.00 0.00 0.00 0.01 0.01 0.01 0.01 0.01 0.01 0.01 0.01 0.01 0.01 0.01 0.01 0.01 0.01 0.01 0.02 0.02 0.02 0.02 0.02 0.03 0.03 0.03 0.03 0.02 0.02 0.02 0.02 0.02 0.01 0.01 0.01 0.01 0.01 0.01 0.01 0.01 0.01
0.00 0.00 0.00 0.00 0.00 0.00 0.00 0.00 0.00 0.00 0.00 0.00 0.01 0.01 0.01 0.01 0.01 0.01 0.01 0.01 0.01 0.01 0.01 0.02 0.02 0.02 0.02 0.03 0.03 0.03 0.02 0.02 0.02 0.02 0.02 0.02 0.01 0.01 0.01 0.01 0.01 0.01 0.01 0.01
MSLP
1015.49 1015.76 1016.01 1016.20 1016.32 1016.33 1016.20 1015.96 1015.60 1015.16 1014.68 1014.22 1013.83 1013.56 1013.44 1013.48 1013.70 1014.07 1014.58 1015.18 1015.85 1016.55 1017.23 1017.88 1018.48 1019.02 1019.48 1019.86 1020.16 1020.40 1020.58 1020.71 1020.81 1020.90 1020.98 1021.05 1021.13 1021.20 1021.25 1021.29 1021.30 1021.28 1021.22 1021.14
1015.56 1015.78 1015.93 1016.00 1015.95 1015.80 1015.54 1015.19 1014.77 1014.33 1013.90 1013.53 1013.26 1013.12 1013.11 1013.25 1013.54 1013.95 1014.47 1015.06 1015.71 1016.39 1017.07 1017.73 1018.35 1018.93 1019.44 1019.88 1020.25 1020.54 1020.77 1020.94 1021.07 1021.17 1021.26 1021.34 1021.43 1021.52 1021.61 1021.68 1021.72 1021.74 1021.73 1021.69
1015.62 1015.78 1015.83 1015.74 1015.53 1015.20 1014.78 1014.31 1013.83 1013.38 1013.00 1012.72 1012.57 1012.57 1012.71 1012.98 1013.37 1013.85 1014.40 1015.00 1015.64 1016.29 1016.95 1017.59 1018.22 1018.81 1019.36 1019.84 1020.25 1020.59 1020.87 1021.09 1021.25 1021.39 1021.52 1021.64 1021.76 1021.88 1022.01 1022.12 1022.21 1022.27 1022.30 1022.29
1015.56 1015.65 1015.59 1015.36 1014.99 1014.50 1013.94 1013.36 1012.82 1012.36 1012.03 1011.86 1011.85 1012.00 1012.30 1012.72 1013.23 1013.80 1014.40 1015.03 1015.66 1016.29 1016.91 1017.53 1018.13 1018.70 1019.25 1019.74 1020.19 1020.57 1020.89 1021.16 1021.39 1021.58 1021.76 1021.93 1022.11 1022.28 1022.46 1022.62 1022.76 1022.86 1022.91 1022.93
1015.30 1015.31 1015.15 1014.80 1014.31 1013.70 1013.04 1012.39 1011.82 1011.38 1011.12 1011.05 1011.19 1011.51 1011.97 1012.54 1013.18 1013.84 1014.52 1015.17 1015.80 1016.40 1016.98 1017.55 1018.10 1018.64 1019.16 1019.65 1020.10 1020.51 1020.88 1021.20 1021.48 1021.74 1021.98 1022.22 1022.46 1022.69 1022.92 1023.13 1023.31 1023.44 1023.52 1023.54
1014.78 1014.72 1014.47 1014.05 1013.48 1012.81 1012.11 1011.46 1010.91 1010.53 1010.36 1010.41 1010.69 1011.15 1011.77 1012.48 1013.23 1013.99 1014.72 1015.40 1016.03 1016.60 1017.14 1017.65 1018.14 1018.63 1019.11 1019.57 1020.02 1020.44 1020.84 1021.21 1021.55 1021.87 1022.18 1022.48 1022.78 1023.07 1023.35 1023.59 1023.80 1023.95 1024.04 1024.06
1014.01 1013.87 1013.57 1013.13 1012.56 1011.91 1011.25 1010.65 1010.18 1009.89 1009.83 1010.00 1010.40 1011.00 1011.73 1012.55 1013.39 1014.22 1014.99 1015.69 1016.31 1016.85 1017.35 1017.80 1018.24 1018.67 1019.10 1019.54 1019.97 1020.40 1020.81 1021.21 1021.60 1021.97 1022.33 1022.69 1023.03 1023.36 1023.67 1023.94 1024.16 1024.31 1024.40 1024.41
1013.05 1012.84 1012.53 1012.12 1011.61 1011.06 1010.51 1010.03 1009.69 1009.52 1009.58 1009.86 1010.36 1011.04 1011.84 1012.72 1013.62 1014.48 1015.27 1015.97 1016.57 1017.09 1017.54 1017.96 1018.35 1018.73 1019.12 1019.53 1019.95 1020.37 1020.80 1021.22 1021.64 1022.04 1022.44 1022.82 1023.19 1023.53 1023.85 1024.12 1024.33 1024.48 1024.55 1024.54
1011.97 1011.73 1011.45 1011.13 1010.75 1010.35 1009.97 1009.66 1009.47 1009.45 1009.61 1009.97 1010.53 1011.24 1012.06 1012.95 1013.84 1014.69 1015.47 1016.15 1016.74 1017.24 1017.67 1018.05 1018.42 1018.78 1019.15 1019.53 1019.94 1020.36 1020.79 1021.23 1021.66 1022.08 1022.48 1022.88 1023.24 1023.58 1023.88 1024.12 1024.31 1024.43 1024.48 1024.46
1010.90 1010.67 1010.47 1010.27 1010.07 1009.87 1009.69 1009.57 1009.54 1009.64 1009.88 1010.28 1010.84 1011.53 1012.31 1013.14 1013.98 1014.78 1015.52 1016.18 1016.74 1017.23 1017.65 1018.03 1018.39 1018.75 1019.12 1019.51 1019.92 1020.34 1020.78 1021.22 1021.65 1022.07 1022.48 1022.85 1023.20 1023.51 1023.77 1023.98 1024.13 1024.21 1024.23 1024.19
1009.96 1009.78 1009.70 1009.66 1009.66 1009.67 1009.69 1009.75 1009.86 1010.04 1010.32 1010.72 1011.23 1011.84 1012.52 1013.25 1013.99 1014.71 1015.39 1016.00 1016.54 1017.02 1017.45 1017.85 1018.23 1018.61 1019.00 1019.41 1019.83 1020.27 1020.72 1021.17 1021.60 1022.02 1022.41 1022.76 1023.08 1023.34 1023.56 1023.72 1023.83 1023.88 1023.88 1023.82
1009.27 1009.18 1009.24 1009.38 1009.57 1009.77 1009.97 1010.17 1010.37 1010.60 1010.87 1011.21 1011.62 1012.10 1012.64 1013.23 1013.85 1014.46 1015.06 1015.62 1016.14 1016.62 1017.06 1017.49 1017.90 1018.32 1018.75 1019.19 1019.64 1020.11 1020.58 1021.04 1021.48 1021.89 1022.27 1022.61 1022.89 1023.12 1023.30 1023.42 1023.48 1023.50 1023.47 1023.41
1008.87 1008.92 1009.13 1009.44 1009.80 1010.16 1010.48 1010.76 1011.01 1011.22 1011.44 1011.68 1011.95 1012.28 1012.67 1013.10 1013.57 1014.07 1014.58 1015.08 1015.57 1016.05 1016.51 1016.96 1017.42 1017.87 1018.34 1018.82 1019.32 1019.82 1020.31 1020.80 1021.26 1021.68 1022.06 1022.38 1022.65 1022.86 1023.00 1023.09 1023.13 1023.12 1023.08 1023.02
1008.80 1009.00 1009.36 1009.82 1010.30 1010.76 1011.15 1011.46 1011.70 1011.86 1011.99 1012.10 1012.23 1012.40 1012.62 1012.90 1013.24 1013.62 1014.04 1014.48 1014.93 1015.40 1015.86 1016.33 1016.81 1017.30 1017.80 1018.32 1018.84 1019.38 1019.91 1020.42 1020.91 1021.35 1021.75 1022.08 1022.35 1022.55 1022.69 1022.76 1022.79 1022.77 1022.72 1022.65
1009.03 1009.39 1009.88 1010.44 1011.00 1011.50 1011.90 1012.19 1012.37 1012.46 1012.47 1012.46 1012.45 1012.48 1012.55 1012.70 1012.91 1013.19 1013.52 1013.90 1014.31 1014.74 1015.18 1015.65 1016.13 1016.62 1017.14 1017.68 1018.23 1018.79 1019.35 1019.90 1020.42 1020.90 1021.33 1021.69 1021.97 1022.19 1022.33 1022.41 1022.43 1022.41 1022.37 1022.31
1009.51 1010.00 1010.59 1011.20 1011.78 1012.27 1012.64 1012.87 1012.98 1012.98 1012.90 1012.77 1012.65 1012.56 1012.53 1012.56 1012.68 1012.87 1013.12 1013.42 1013.77 1014.15 1014.55 1014.98 1015.43 1015.91 1016.42 1016.95 1017.51 1018.09 1018.68 1019.25 1019.81 1020.33 1020.79 1021.18 1021.50 1021.74 1021.90 1022.00 1022.03 1022.02 1021.98 1021.93
1010.16 1010.74 1011.37 1011.99 1012.55 1012.99 1013.29 1013.46 1013.49 1013.40 1013.25 1013.05 1012.86 1012.69 1012.59 1012.55 1012.59 1012.70 1012.87 1013.10 1013.37 1013.68 1014.01 1014.38 1014.78 1015.21 1015.68 1016.19 1016.74 1017.32 1017.91 1018.51 1019.09 1019.64 1020.13 1020.56 1020.91 1021.18 1021.37 1021.48 1021.54 1021.54 1021.52 1021.48
1010.90 1011.52 1012.14 1012.72 1013.22 1013.58 1013.81 1013.91 1013.87 1013.74 1013.54 1013.31 1013.09 1012.89 1012.75 1012.67 1012.66 1012.71 1012.81 1012.96 1013.14 1013.36 1013.60 1013.89 1014.21 1014.57 1014.99 1015.45 1015.97 1016.53 1017.12 1017.72 1018.31 1018.87 1019.38 1019.83 1020.20 1020.49 1020.70 1020.84 1020.92 1020.95 1020.94 1020.92
1011.64 1012.24 1012.82 1013.33 1013.74 1014.02 1014.18 1014.22 1014.15 1014.00 1013.79 1013.57 1013.35 1013.16 1013.02 1012.92 1012.87 1012.86 1012.90 1012.96 1013.06 1013.17 1013.32 1013.51 1013.74 1014.03 1014.38 1014.79 1015.26 1015.79 1016.35 1016.93 1017.51 1018.06 1018.57 1019.02 1019.40 1019.69 1019.92 1020.07 1020.17 1020.22 1020.24 1020.24
1012.32 1012.87 1013.36 1013.78 1014.10 1014.31 1014.41 1014.42 1014.34 1014.20 1014.03 1013.84 1013.65 1013.49 1013.35 1013.24 1013.17 1013.12 1013.08 1013.06 1013.07 1013.09 1013.14 1013.24 1013.38 1013.59 1013.87 1014.23 1014.65 1015.13 1015.65 1016.19 1016.74 1017.26 1017.74 1018.16 1018.52 1018.81 1019.03 1019.19 1019.30 1019.38 1019.43 1019.47
1012.91 1013.37 1013.77 1014.10 1014.34 1014.49 1014.57 1014.56 1014.50 1014.40 1014.26 1014.12 1013.98 1013.84 1013.72 1013.61 1013.50 1013.40 1013.30 1013.20 1013.12 1013.05 1013.02 1013.04 1013.11 1013.26 1013.48 1013.78 1014.15 1014.58 1015.04 1015.53 1016.02 1016.49 1016.92 1017.30 1017.62 1017.88 1018.09 1018.25 1018.38 1018.48 1018.57 1018.65
1013.40 1013.76 1014.08 1014.33 1014.51 1014.63 1014.69 1014.70 1014.67 1014.61 1014.53 1014.44 1014.33 1014.22 1014.10 1013.96 1013.82 1013.66 1013.50 1013.33 1013.17 1013.04 1012.94 1012.90 1012.92 1013.01 1013.19 1013.44 1013.76 1014.13 1014.54 1014.97 1015.39 1015.78 1016.14 1016.46 1016.73 1016.95 1017.14 1017.30 1017.44 1017.57 1017.70 1017.84
1013.78 1014.07 1014.31 1014.51 1014.66 1014.77 1014.85 1014.89 1014.90 1014.88 1014.84 1014.79 1014.70 1014.59 1014.46 1014.29 1014.10 1013.89 1013.66 1013.43 1013.21 1013.02 1012.87 1012.79 1012.77 1012.83 1012.97 1013.19 1013.46 1013.78 1014.12 1014.48 1014.82 1015.14 1015.42 1015.67 1015.88 1016.06 1016.23 1016.39 1016.54 1016.71 1016.88 1017.07
1014.07 1014.30 1014.51 1014.68 1014.83 1014.96 1015.06 1015.13 1015.18 1015.21 1015.20 1015.16 1015.08 1014.96 1014.79 1014.59 1014.34 1014.07 1013.78 1013.50 1013.23 1013.00 1012.82 1012.71 1012.67 1012.71 1012.82 1013.00 1013.23 1013.49 1013.77 1014.05 1014.31 1014.55 1014.75 1014.93 1015.09 1015.24 1015.39 1015.55 1015.72 1015.92 1016.14 1016.37
1014.26 1014.47 1014.66 1014.84 1015.01 1015.17 1015.30 1015.42 1015.51 1015.56 1015.57 1015.53 1015.44 1015.29 1015.09 1014.84 1014.54 1014.22 1013.88 1013.55 1013.25 1012.99 1012.79 1012.66 1012.60 1012.62 1012.71 1012.85 1013.04 1013.24 1013.46 1013.66 1013.84 1014.01 1014.15 1014.27 1014.38 1014.50 1014.64 1014.80 1015.00 1015.22 1015.48 1015.75
1014.35 1014.56 1014.77 1014.97 1015.17 1015.36 1015.54 1015.69 1015.81 1015.88 1015.90 1015.86 1015.76 1015.58 1015.34 1015.05 1014.71 1014.35 1013.98 1013.62 1013.29 1013.01 1012.80 1012.65 1012.58 1012.58 1012.64 1012.74 1012.87 1013.01 1013.16 1013.29 1013.41 1013.51 1013.59 1013.67 1013.75 1013.86 1013.99 1014.16 1014.37 1014.62 1014.90 1015.18
1014.31 1014.54 1014.77 1015.01 1015.25 1015.48 1015.69 1015.88 1016.02 1016.11 1016.14 1016.10 1015.98 1015.79 1015.53 1015.22 1014.86 1014.48 1014.09 1013.72 1013.38 1013.09 1012.86 1012.70 1012.61 1012.57 1012.59 1012.64 1012.71 1012.79 1012.87 1012.94 1013.00 1013.04 1013.08 1013.13 1013.20 1013.30 1013.43 1013.61 1013.83 1014.09 1014.37 1014.65
Thickness
5511 5517 5514 5514 5517 5517 5511 5510 5508 5524 5531 5544 5546 5548 5549 5547 5544 5541 5539 5537 5536 5533 5530 5529 5528 5528 5529 5528 5529 5529 5528 5527 5526 5526 5526 5526 5525 5525 5524 5523 5523 5522 5520 5518
5509 5514 5514 5513 5517 5518 5519 5520 5519 5525 5532 5543 5545 5543 5542 5541 5541 5539 5537 5535 5532 5529 5525 5523 5522 5521 5521 5520 5520 5519 5518 5517 5516 5516 5516 5515 5514 5513 5512 5511 5510 5508 5507 5505
5490 5503 5507 5502 5519 5522 5520 5524 5525 5527 5537 5539 5540 5540 5541 5539 5539 5539 5537 5533 5529 5526 5522 5519 5517 5515 5513 5512 5512 5510 5509 5508 5507 5507 5505 5504 5504 5501 5500 5498 5497 5495 5494 5492
5483 5492 5486 5517 5529 5528 5527 5531 5530 5535 5538 5538 5541 5541 5540 5539 5538 5536 5534 5530 5525 5520 5516 5513 5511 5509 5507 5505 5504 5502 5501 5500 5499 5497 5496 5494 5493 5491 5489 5487 5485 5483 5481 5480
5479 5479 5491 5515 5526 5526 5522 5526 5533 5534 5537 5536 5535 5533 5531 5534 5535 5533 5530 5525 5519 5515 5511 5507 5505 5503 5500 5498 5496 5495 5493 5492 5491 5489 5487 5486 5483 5481 5479 5477 5475 5472 5470 5469
5480 5483 5490 5516 5528 5529 5526 5523 5535 5535 5534 5531 5529 5526 5529 5528 5526 5522 5519 5516 5511 5507 5504 5501 5498 5496 5494 5491 5489 5488 5486 5485 5483 5481 5479 5477 5475 5472 5470 5468 5465 5463 5461 5458
5478 5482 5494 5515 5522 5523 5511 5520 5532 5534 5532 5529 5527 5529 5525 5519 5516 5513 5510 5507 5504 5501 5498 5495 5493 5490 5487 5485 5483 5482 5480 5478 5476 5474 5472 5470 5467 5464 5462 5459 5457 5454 5451 5449
5478 5481 5493 5517 5515 5513 5518 5524 5527 5528 5527 5525 5522 5517 5514 5512 5508 5505 5502 5500 5497 5493 5490 5488 5487 5485 5481 5479 5478 5475 5473 5471 5469 5467 5465 5463 5459 5457 5454 5451 5448 5445 5442 5440
5486 5496 5508 5511 5513 5517 5517 5518 5521 5520 5520 5517 5513 5510 5507 5504 5501 5498 5496 5493 5490 5487 5484 5482 5481 5480 5476 5474 5472 5469 5466 5464 5462 5460 5458 5456 5453 5450 5447 5444 5440 5437 5434 5432
5486 5495 5502 5506 5507 5511 5512 5513 5514 5514 5513 5511 5509 5506 5502 5499 5495 5492 5490 5488 5485 5482 5479 5477 5475 5474 5473 5470 5467 5464 5461 5458 5456 5453 5451 5449 5446 5444 5441 5437 5434 5431 5428 5426
5485 5495 5499 5504 5503 5504 5504 5505 5505 5506 5505 5504 5503 5500 5497 5494 5491 5489 5486 5484 5481 5479 5477 5474 5472 5470 5468 5465 5462 5459 5455 5453 5450 5448 5445 5442 5440 5437 5435 5433 5430 5427 5424 5421
5484 5492 5493 5498 5501 5499 5497 5497 5497 5497 5496 5496 5495 5494 5492 5489 5487 5485 5482 5480 5477 5475 5474 5471 5468 5466 5464 5462 5459 5455 5451 5448 5445 5442 5439 5436 5433 5431 5430 5428 5427 5425 5422 5418
5487 5490 5489 5492 5492 5492 5491 5490 5490 5489 5489 5488 5487 5486 5485 5483 5482 5480 5478 5476 5475 5473 5471 5468 5465 5463 5461 5458 5455 5452 5449 5445 5441 5438 5434 5431 5427 5425 5422 5421 5421 5419 5416 5413
5479 5481 5481 5482 5482 5482 5482 5481 5480 5480 5480 5479 5478 5478 5478 5477 5476 5475 5474 5473 5472 5469 5467 5465 5463 5461 5459 5455 5452 5449 5445 5443 5438 5434 5431 5427 5424 5421 5417 5414 5412 5409 5409 5407
5471 5474 5476 5474 5472 5471 5471 5470 5469 5469 5469 5469 5469 5469 5469 5469 5470 5470 5469 5468 5467 5465 5463 5462 5460 5458 5455 5452 5448 5445 5441 5438 5435 5430 5427 5423 5420 5416 5413 5410 5407 5403 5400 5399
5464 5464 5464 5464 5463 5462 5461 5461 5461 5460 5460 5461 5461 5462 5462 5463 5464 5464 5463 5463 5461 5461 5460 5459 5457 5455 5452 5448 5445 5441 5438 5436 5431 5427 5422 5419 5415 5411 5408 5405 5401 5398 5395 5393
5454 5455 5454 5454 5455 5454 5454 5453 5453 5453 5452 5452 5453 5454 5454 5455 5456 5456 5456 5457 5457 5457 5456 5454 5453 5450 5448 5445 5441 5438 5434 5431 5428 5423 5419 5416 5412 5408 5404 5401 5397 5394 5391 5389
5453 5454 5453 5452 5449 5447 5445 5444 5444 5444 5444 5445 5445 5446 5447 5448 5449 5450 5450 5449 5449 5449 5449 5449 5448 5445 5443 5441 5438 5434 5430 5427 5423 5419 5416 5412 5408 5405 5401 5397 5394 5390 5387 5384
5442 5442 5441 5440 5439 5438 5436 5435 5435 5435 5436 5437 5438 5438 5440 5441 5442 5442 5442 5442 5443 5443 5444 5443 5442 5440 5438 5436 5433 5429 5426 5422 5419 5415 5412 5409 5406 5401 5397 5393 5390 5386 5383 5379
5430 5430 5430 5429 5429 5427 5425 5425 5425 5426 5427 5428 5430 5431 5431 5432 5433 5434 5434 5436 5437 5438 5438 5436 5436 5434 5432 5430 5428 5424 5421 5418 5415 5411 5407 5404 5401 5397 5393 5390 5386 5382 5379 5375
5419 5419 5419 5418 5417 5416 5415 5415 5416 5417 5418 5420 5421 5422 5423 5424 5425 5426 5426 5428 5429 5429 5430 5430 5429 5428 5426 5424 5422 5419 5416 5413 5410 5407 5404 5400 5396 5393 5389 5385 5382 5379 5375 5372
5408 5408 5408 5408 5408 5407 5406 5406 5407 5408 5409 5410 5411 5412 5413 5415 5416 5417 5419 5419 5421 5422 5422 5422 5422 5422 5420 5419 5416 5413 5411 5408 5406 5402 5399 5396 5393 5389 5385 5381 5377 5374 5371 5367
5399 5399 5399 5399 5399 5398 5398 5397 5398 5399 5400 5401 5402 5403 5404 5405 5407 5408 5410 5411 5412 5414 5414 5414 5415 5415 5415 5413 5410 5408 5405 5403 5400 5398 5395 5392 5388 5385 5381 5377 5373 5370 5366 5361
5392 5391 5391 5391 5390 5390 5390 5390 5390 5391 5391 5392 5394 5395 5395 5396 5398 5400 5401 5403 5405 5407 5407 5407 5408 5409 5408 5406 5404 5402 5400 5398 5395 5392 5389 5386 5383 5379 5376 5372 5369 5365 5361 5356
5384 5383 5383 5383 5383 5384 5384 5383 5383 5383 5384 5385 5386 5387 5388 5389 5389 5392 5393 5394 5397 5398 5399 5400 5401 5401 5400 5399 5397 5395 5393 5391 5389 5386 5384 5380 5377 5374 5370 5367 5363 5359 5355 5351
5378 5377 5377 5377 5377 5377 5376 5376 5376 5377 5378 5379 5379 5380 5381 5382 5383 5384 5385 5387 5388 5390 5390 5391 5391 5392 5391 5390 5389 5388 5386 5384 5382 5380 5377 5374 5371 5368 5364 5361 5357 5353 5349 5345
5371 5370 5370 5370 5371 5371 5370 5370 5370 5370 5371 5371 5372 5373 5373 5374 5375 5376 5377 5378 5379 5380 5381 5381 5382 5382 5382 5381 5380 5379 5377 5375 5373 5372 5369 5366 5363 5360 5357 5354 5350 5347 5342 5338